2023/10/04 00:00:00, 5.8,15.8
2023/10/04 00:10:00, 5.9,15.9
2023/10/04 00:20:00, 6.0,15.9
2023/10/04 00:30:00, 6.2,15.9
2023/10/04 00:40:00, 6.3,15.9
2023/10/04 00:50:00, 6.6,16.1
2023/10/04 01:00:00, 6.7,15.5
2023/10/04 01:10:00, 6.7,16.0
2023/10/04 01:20:00, 6.9,16.2
2023/10/04 01:30:00, 7.0,16.3
2023/10/04 01:40:00, 6.9,16.1
2023/10/04 01:50:00, 4.2,15.8
2023/10/04 02:00:00, 0.3,15.5
2023/10/04 02:10:00, 0.2,15.6
2023/10/04 02:20:00, 0.2,15.5
2023/10/04 02:30:00, 0.2,15.6
2023/10/04 02:40:00, 0.2,15.7
2023/10/04 02:50:00, 0.2,15.8
2023/10/04 03:00:00, 0.2,15.5
2023/10/04 03:10:00, 0.7,15.1
2023/10/04 03:20:00, 4.4,14.6
2023/10/04 03:30:00, 6.1,14.6
2023/10/04 03:40:00, 6.4,14.7
2023/10/04 03:50:00, 6.5,14.3
2023/10/04 04:00:00, 6.5,13.9
2023/10/04 04:10:00, 6.7,14.2
2023/10/04 04:20:00, 6.7,13.7
2023/10/04 04:30:00, 6.7,13.4
2023/10/04 04:40:00, 6.8,13.0
2023/10/04 04:50:00, 6.8,12.9
2023/10/04 05:00:00, 7.0,13.2
2023/10/04 05:10:00, 6.8,13.2
2023/10/04 05:20:00, 7.0,13.0
2023/10/04 05:30:00, 7.0,13.2
2023/10/04 05:40:00, 6.9,12.9
2023/10/04 05:50:00, 7.0,12.8
2023/10/04 06:00:00, 7.1,13.2
2023/10/04 06:10:00, 7.1,13.3
2023/10/04 06:20:00, 7.1,13.4
2023/10/04 06:30:00, 7.1,13.2
2023/10/04 06:40:00, 7.1,13.6
2023/10/04 06:50:00, 7.0,14.1
2023/10/04 07:00:00, 6.9,15.5
2023/10/04 07:10:00, 6.8,15.4
2023/10/04 07:20:00, 6.7,16.8
2023/10/04 07:30:00, 6.6,18.2
2023/10/04 07:40:00, 6.3,21.2
2023/10/04 07:50:00, 5.9,22.6
2023/10/04 08:00:00, 6.0,23.3
2023/10/04 08:10:00, 6.2,24.3
2023/10/04 08:20:00, 6.3,23.6
2023/10/04 08:30:00, 6.3,25.4
2023/10/04 08:40:00, 6.3,25.8
2023/10/04 08:50:00, 6.3,28.0
2023/10/04 09:00:00, 6.3,27.8
2023/10/04 09:10:00, 6.3,27.6
2023/10/04 09:20:00, 6.3,27.4
2023/10/04 09:30:00, 6.0,26.2
2023/10/04 09:40:00, 5.9,25.5
2023/10/04 09:50:00, 5.9,26.0
2023/10/04 10:00:00, 6.0,26.3
2023/10/04 10:10:00, 5.8,26.1
2023/10/04 10:20:00, 5.7,25.6
2023/10/04 10:30:00, 5.6,25.6
2023/10/04 10:40:00, 5.6,25.7
2023/10/04 10:50:00, 5.8,25.5
2023/10/04 11:00:00, 5.8,25.1
2023/10/04 11:10:00, 6.1,24.9
2023/10/04 11:20:00, 6.2,26.0
2023/10/04 11:30:00, 6.3,26.3
2023/10/04 11:40:00, 6.3,26.1
2023/10/04 11:50:00, 6.3,26.1
2023/10/04 12:00:00, 6.6,26.5
2023/10/04 12:10:00, 6.5,27.0
2023/10/04 12:20:00, 6.7,27.7
2023/10/04 12:30:00, 6.5,27.9
2023/10/04 12:40:00, 6.3,27.5
2023/10/04 12:50:00, 6.4,28.5
2023/10/04 13:00:00, 6.8,28.7
2023/10/04 13:10:00, 6.3,28.2
2023/10/04 13:20:00, 6.3,28.2
2023/10/04 13:30:00, 6.3,28.9
2023/10/04 13:40:00, 6.3,28.3
2023/10/04 13:50:00, 6.3,28.6
2023/10/04 14:00:00, 6.6,29.6
2023/10/04 14:10:00, 6.8,29.6
2023/10/04 14:20:00, 6.6,29.4
2023/10/04 14:30:00, 6.4,30.1
2023/10/04 14:40:00, 6.2,29.7
2023/10/04 14:50:00, 6.2,30.0
2023/10/04 15:00:00, 6.0,28.6
2023/10/04 15:10:00, 5.9,27.7
2023/10/04 15:20:00, 5.9,28.5
2023/10/04 15:30:00, 6.0,29.4
2023/10/04 15:40:00, 5.8,28.5
2023/10/04 15:50:00, 5.5,27.8
2023/10/04 16:00:00, 5.6,27.6
2023/10/04 16:10:00, 5.5,25.5
2023/10/04 16:20:00, 5.5,26.9
2023/10/04 16:30:00, 5.5,29.0
2023/10/04 16:40:00, 5.4,24.0
2023/10/04 16:50:00, 4.7,23.2
2023/10/04 17:00:00, 4.3,22.6
2023/10/04 17:10:00, 4.7,22.3
2023/10/04 17:20:00, 4.9,21.6
2023/10/04 17:30:00, 4.8,21.7
2023/10/04 17:40:00, 4.9,21.2
2023/10/04 17:50:00, 4.9,20.7
2023/10/04 18:00:00, 4.8,20.3
2023/10/04 18:10:00, 4.8,20.3
2023/10/04 18:20:00, 4.8,19.8
2023/10/04 18:30:00, 4.9,19.5
2023/10/04 18:40:00, 5.0,19.5
2023/10/04 18:50:00, 4.9,19.4
2023/10/04 19:00:00, 4.3,19.3
2023/10/04 19:10:00, 3.3,19.5
2023/10/04 19:20:00, 1.3,19.1
2023/10/04 19:30:00, 0.6,19.2
2023/10/04 19:40:00, 0.5,19.2
2023/10/04 19:50:00, 0.4,19.4
2023/10/04 20:00:00, 0.4,19.4
2023/10/04 20:10:00, 0.4,19.6
2023/10/04 20:20:00, 0.5,19.5
2023/10/04 20:30:00, 1.1,18.8
2023/10/04 20:40:00, 3.0,19.5
2023/10/04 20:50:00, 4.0,19.3
2023/10/04 21:00:00, 4.0,18.8
2023/10/04 21:10:00, 3.5,18.9
2023/10/04 21:20:00, 2.7,18.6
2023/10/04 21:30:00, 1.6,18.7
2023/10/04 21:40:00, 1.1,18.8
2023/10/04 21:50:00, 1.1,18.6
2023/10/04 22:00:00, 3.1,19.2
2023/10/04 22:10:00, 3.9,19.5
2023/10/04 22:20:00, 0.5,18.6
2023/10/04 22:30:00, 1.2,17.9
2023/10/04 22:40:00, 4.0,18.1
2023/10/04 22:50:00, 5.3,18.7
2023/10/04 23:00:00, 5.3,18.9
2023/10/04 23:10:00, 2.9,18.4
2023/10/04 23:20:00, 6.2,18.2
2023/10/04 23:30:00, 6.4,17.4
2023/10/04 23:40:00, 6.5,17.3
2023/10/04 23:50:00, 3.2,17.0
